Wind_Speed
36 37 35 33 31 28 24 24 19 12 13 19 18 16 16 20 18 13 15 19 21 20 17 7 13 19 18 19 18 24 30 29 26 29 30 25 22 31 30 30 33 42 49
37 37 37 34 34 30 25 21 17 17 19 26 19 18 24 22 22 20 19 20 17 13 8 8 14 15 24 30 30 21 29 30 37 39 41 30 37 36 43 43 48 54 56
39 38 36 37 34 32 31 25 25 19 17 20 22 24 26 28 23 20 22 22 24 30 23 24 28 35 31 29 29 28 25 30 33 30 36 40 45 50 55 55 57 66 63
41 36 36 39 38 37 37 32 27 27 21 20 21 29 31 35 34 35 33 36 40 40 38 37 36 36 38 34 35 34 38 38 39 38 39 42 48 51 56 60 66 68 72
43 41 42 42 42 40 41 33 34 38 40 36 30 30 30 36 40 44 44 45 45 49 50 47 44 42 43 40 41 39 43 42 44 45 45 50 53 52 54 54 56 51 52
35 36 39 40 46 52 48 37 38 46 48 42 43 36 44 44 48 53 52 55 58 55 57 55 54 52 51 51 54 53 47 46 46 49 50 57 58 55 48 48 49 53 57
50 51 48 50 56 65 60 52 52 52 49 47 47 50 51 50 51 55 56 56 60 61 62 63 62 62 63 60 59 52 49 50 52 56 59 57 58 57 54 57 59 61 66
56 49 50 63 58 64 58 54 56 55 52 57 59 55 58 63 58 57 55 61 64 69 70 73 70 69 68 67 61 59 62 57 63 66 64 62 60 59 67 63 64 66 70
66 67 70 68 68 66 64 63 61 67 66 62 64 63 65 64 68 67 65 62 61 65 70 75 71 64 62 65 66 68 72 74 77 80 79 76 80 82 77 68 69 78 82
63 72 76 78 67 64 68 71 73 67 74 75 72 69 64 66 66 63 63 69 70 65 68 70 72 75 80 75 83 81 79 80 80 80 86 87 89 87 86 85 93 85 81
72 74 81 85 87 85 80 82 82 81 80 78 78 81 81 74 70 71 70 71 71 71 76 77 83 82 86 85 88 94 92 91 90 91 94 94 97 99 103 97 101 92 80
66 79 83 85 93 91 83 89 86 87 85 87 90 92 93 93 82 75 76 76 79 81 83 88 91 95 93 96 98 98 98 99 100 101 103 104 105 108 109 103 93 91 87
65 67 70 80 90 89 86 88 89 90 96 97 98 95 95 97 100 91 88 87 88 89 91 94 96 98 98 102 103 105 108 106 106 109 109 112 117 113 111 105 101 95 100
67 70 72 75 77 81 87 92 96 99 100 99 99 100 99 100 100 103 101 101 99 99 100 104 106 109 110 108 107 109 110 112 115 114 117 118 119 116 112 116 108 104 105
72 74 76 77 78 83 86 91 91 96 102 104 104 106 107 106 103 104 106 107 107 109 110 112 112 114 115 116 118 120 121 119 121 122 124 127 124 125 121 119 119 117 112
77 78 80 83 86 87 90 91 91 94 98 100 104 111 114 113 115 112 112 114 115 117 120 122 124 124 124 124 124 125 126 127 128 130 133 133 129 128 129 129 121 112 98
78 82 84 86 88 89 91 94 97 97 100 102 104 109 114 114 117 120 120 121 125 126 130 131 129 129 131 132 132 133 133 136 138 137 134 135 134 136 128 113 104 98 93
80 81 83 83 86 89 92 94 97 99 102 105 108 110 112 115 118 123 127 129 130 130 132 130 129 131 132 132 133 134 133 134 133 136 135 134 128 114 107 102 92 85 79
74 77 79 80 81 81 83 86 90 94 98 102 106 110 114 118 122 124 126 127 128 127 129 129 132 134 136 138 139 139 141 141 136 127 119 113 106 100 93 87 80 75 70
77 79 80 84 88 91 93 96 97 98 100 103 106 107 109 108 111 114 116 117 118 120 121 120 119 120 120 119 119 118 115 112 108 103 99 94 87 81 77 73 67 63 60
87 88 91 93 93 92 93 96 99 102 103 104 105 104 103 103 102 103 106 107 106 106 104 104 105 105 103 100 94 90 86 83 80 76 72 68 65 63 60 59 59 56 53
91 92 94 93 94 95 94 93 91 90 90 88 85 83 82 83 84 85 85 84 86 82 77 73 70 69 66 64 60 61 63 62 59 58 57 56 56 55 53 52 52 52 51
92 93 92 89 84 81 79 78 76 74 73 71 70 69 70 69 66 63 61 61 57 61 59 58 58 57 55 52 51 51 51 50 50 50 49 49 49 47 46 45 46 46 47
82 81 78 74 74 73 71 69 65 64 64 64 64 63 59 52 49 50 49 48 49 51 53 52 50 48 49 47 46 44 44 42 41 41 40 41 41 40 41 41 43 45 45
61 62 66 65 63 59 56 57 56 56 56 56 56 54 51 49 47 46 45 46 47 45 43 44 41 38 36 35 36 36 35 35 34 34 34 36 37 38 39 41 42 42 42
59 56 51 49 48 46 45 42 41 40 41 40 40 40 37 35 35 36 37 36 36 37 36 34 32 29 26 26 26 27 28 28 29 31 32 33 35 37 39 40 41 42 42
Wind_Direction
238 237 246 262 264 254 269 280 278 303 284 278 287 266 274 277 282 275 259 252 254 261 264 293 356 349 327 318 286 281 280 273 284 285 297 282 274 270 274 276 284 293 302
244 238 243 254 258 252 255 250 249 266 295 280 274 271 275 276 275 265 249 236 243 252 266 352 332 335 332 327 318 304 290 279 285 289 290 263 274 263 274 281 282 290 295
247 236 242 254 251 246 247 244 255 259 262 256 266 269 271 270 272 274 254 228 246 263 273 283 300 303 302 308 300 276 285 290 298 303 294 281 282 283 280 288 291 294 298
255 241 246 250 241 250 252 256 253 250 235 235 253 256 267 269 264 275 266 265 272 272 269 277 283 286 294 296 296 286 282 296 301 297 288 282 282 290 291 291 291 295 297
250 246 247 240 242 242 246 260 250 250 237 231 244 263 259 278 275 270 272 273 276 276 271 270 276 276 287 288 290 291 291 288 291 294 295 297 296 299 299 300 300 305 305
242 261 257 265 257 265 254 247 241 239 237 237 236 244 250 254 264 272 272 274 278 276 273 273 274 276 285 288 291 295 288 285 286 288 295 302 301 301 297 301 303 305 306
230 224 252 268 254 258 256 245 240 232 235 237 237 243 253 254 258 261 270 274 279 279 278 277 275 274 281 287 291 293 290 291 294 298 293 303 300 302 294 297 300 305 309
228 219 214 228 232 241 246 239 246 237 236 251 249 255 250 250 257 260 263 268 271 272 272 273 271 275 281 288 289 287 283 284 291 301 297 299 300 295 305 302 297 301 303
230 231 234 239 245 251 244 245 251 249 249 250 251 251 253 257 260 259 259 260 264 269 270 271 272 277 271 278 277 275 281 286 287 292 296 299 300 302 300 298 299 300 307
230 234 240 243 246 247 245 245 246 246 247 251 249 252 256 257 257 260 266 269 272 273 272 273 271 266 266 272 273 275 281 285 287 287 287 290 297 298 299 297 302 307 311
234 235 237 240 243 249 252 247 248 247 249 252 256 257 257 262 260 256 260 257 255 256 257 261 265 266 268 274 280 283 288 291 289 289 289 291 292 295 300 300 303 304 305
244 241 236 239 242 246 248 246 248 251 254 258 262 263 261 261 265 260 257 254 253 253 257 260 263 265 272 274 279 280 281 284 284 287 288 290 293 295 297 300 298 300 302
252 250 250 248 247 249 251 249 253 255 259 261 261 264 265 263 263 263 262 265 264 263 264 264 265 269 270 269 272 275 277 279 282 285 287 290 292 295 297 297 299 299 300
255 255 255 254 255 255 255 255 257 259 259 259 262 263 265 265 266 266 266 267 267 267 268 270 270 271 273 275 276 277 278 279 281 284 286 290 292 295 294 294 296 296 297
257 257 257 257 257 257 259 259 259 257 258 259 260 261 263 264 267 268 268 270 270 270 270 271 272 272 273 274 274 276 277 280 282 283 286 289 290 293 293 292 292 293 292
258 259 260 260 260 260 260 259 260 261 261 260 261 261 262 263 264 266 268 268 269 269 272 273 274 275 275 276 277 278 280 281 284 285 287 288 288 289 288 288 290 287 287
265 264 263 263 263 263 264 264 263 264 262 261 262 263 263 264 265 265 267 268 267 269 270 273 273 273 274 273 273 274 275 276 280 283 284 282 284 285 287 284 284 282 283
270 270 269 269 269 268 268 267 267 267 266 267 267 266 266 266 267 267 266 267 268 269 269 270 271 271 272 274 275 277 276 276 278 281 282 282 282 281 280 281 281 279 278
272 272 272 273 274 274 273 271 270 270 270 269 269 268 267 268 267 267 268 269 270 272 272 274 275 276 277 276 276 276 277 278 278 278 277 277 278 277 276 276 276 275 273
275 277 277 276 276 275 274 272 272 272 271 270 270 271 271 269 271 274 274 273 273 274 275 276 277 277 276 276 276 276 276 275 274 273 272 272 272 272 271 272 272 271 267
275 276 276 278 279 277 276 275 275 275 275 275 275 276 277 275 274 274 275 276 276 277 277 277 277 276 275 274 273 272 272 271 269 267 267 267 267 268 267 269 267 261 258
277 279 280 280 281 281 280 280 280 280 280 279 278 277 277 276 275 276 276 277 277 279 280 279 277 274 273 271 269 269 270 271 270 267 266 265 265 265 264 262 257 256 257
281 283 284 284 284 283 281 279 279 278 279 280 280 281 282 280 280 283 284 284 283 284 286 287 286 284 281 277 273 271 270 269 267 266 265 263 262 261 259 258 258 257 256
284 285 286 285 284 283 282 282 283 283 284 284 282 282 287 292 289 288 287 289 291 295 295 293 292 287 281 276 270 268 267 267 266 264 262 260 260 259 257 254 253 253 253
288 286 285 285 285 285 283 280 278 277 276 278 283 287 290 292 289 287 290 293 295 295 299 298 298 294 284 276 267 266 266 265 264 263 259 257 256 256 255 254 254 254 253
294 294 297 297 295 292 289 287 283 282 283 287 289 291 290 289 288 289 291 293 296 298 299 301 300 296 288 280 273 270 265 263 261 260 259 258 258 257 257 258 257 255 254
Height
10953 10954 10958 10960 10961 10961 10959 10958 10957 10957 10958 10956 10956 10953 10953 10952 10950 10950 10949 10949 10950 10953 10953 10952 10950 10951 10950 10949 10949 10950 10949 10950 10951 10947 10944 10941 10942 10941 10937 10934 10932 10928 10924
10944 10946 10949 10951 10952 10952 10950 10949 10948 10948 10950 10949 10948 10947 10945 10945 10945 10943 10944 10945 10946 10947 10945 10943 10945 10947 10947 10945 10945 10945 10946 10945 10945 10942 10937 10934 10932 10931 10927 10924 10922 10919 10914
10935 10937 10939 10940 10943 10944 10941 10940 10938 10939 10939 10940 10940 10937 10936 10937 10938 10938 10939 10938 10938 10940 10938 10937 10939 10940 10941 10941 10941 10940 10937 10937 10934 10932 10930 10928 10926 10926 10920 10917 10913 10908 10903
10928 10929 10930 10931 10933 10936 10933 10932 10931 10932 10930 10929 10929 10927 10927 10928 10929 10930 10932 10932 10931 10929 10927 10928 10928 10930 10932 10931 10932 10931 10928 10926 10923 10921 10920 10919 10917 10914 10911 10908 10902 10897 10890
10919 10919 10917 10917 10919 10921 10921 10920 10919 10920 10918 10914 10916 10916 10917 10918 10918 10918 10919 10919 10919 10918 10916 10916 10916 10916 10916 10917 10920 10920 10918 10916 10912 10909 10907 10905 10903 10901 10897 10895 10891 10887 10880
10911 10915 10913 10912 10913 10910 10912 10909 10905 10904 10903 10903 10905 10905 10907 10908 10907 10903 10904 10904 10904 10905 10903 10902 10901 10901 10902 10903 10904 10903 10901 10901 10899 10896 10893 10890 10885 10886 10883 10878 10876 10872 10866
10894 10896 10901 10893 10893 10892 10893 10893 10891 10887 10892 10891 10892 10894 10893 10895 10895 10893 10890 10890 10888 10888 10888 10887 10886 10886 10886 10887 10887 10886 10885 10884 10881 10880 10877 10872 10871 10870 10868 10865 10859 10858 10854
10876 10879 10876 10858 10865 10864 10874 10880 10878 10880 10879 10878 10876 10877 10879 10881 10882 10880 10877 10877 10876 10875 10874 10872 10871 10869 10871 10869 10868 10869 10867 10867 10865 10863 10863 10858 10858 10855 10854 10851 10847 10847 10841
10853 10857 10858 10854 10854 10857 10862 10865 10866 10865 10864 10860 10859 10862 10864 10864 10865 10865 10864 10863 10861 10859 10858 10856 10855 10853 10852 10853 10853 10850 10849 10850 10852 10848 10845 10844 10841 10838 10838 10836 10831 10832 10825
10840 10837 10837 10838 10838 10840 10844 10847 10848 10847 10845 10844 10843 10846 10848 10849 10850 10847 10845 10844 10843 10841 10841 10841 10839 10840 10836 10833 10834 10834 10829 10828 10828 10827 10828 10825 10825 10820 10817 10817 10811 10806 10800
10819 10822 10822 10823 10824 10825 10828 10829 10829 10828 10827 10827 10829 10830 10832 10832 10831 10830 10828 10827 10826 10825 10824 10822 10819 10820 10816 10815 10809 10805 10805 10802 10802 10804 10804 10802 10800 10798 10794 10794 10786 10785 10784
10799 10801 10803 10807 10808 10809 10808 10806 10808 10808 10807 10807 10807 10808 10810 10811 10812 10811 10807 10805 10804 10802 10801 10801 10798 10797 10794 10791 10788 10786 10786 10784 10780 10778 10777 10774 10771 10770 10770 10769 10766 10762 10762
10779 10782 10784 10785 10787 10788 10789 10788 10789 10788 10786 10785 10785 10784 10784 10784 10787 10787 10789 10786 10783 10780 10779 10776 10774 10772 10772 10769 10767 10765 10765 10762 10758 10756 10752 10749 10745 10740 10740 10739 10739 10739 10735
10759 10760 10762 10763 10764 10765 10765 10766 10766 10764 10763 10763 10761 10758 10759 10758 10760 10758 10758 10757 10757 10755 10753 10751 10747 10744 10742 10740 10737 10736 10736 10735 10732 10730 10729 10724 10718 10716 10713 10712 10711 10712 10712
10738 10739 10740 10741 10741 10741 10741 10740 10740 10739 10738 10737 10737 10734 10733 10730 10733 10729 10728 10727 10725 10725 10724 10722 10720 10716 10714 10712 10710 10707 10706 10707 10705 10702 10700 10695 10691 10688 10687 10683 10683 10684 10685
10717 10716 10715 10714 10713 10714 10714 10714 10712 10711 10711 10710 10709 10706 10704 10700 10699 10697 10695 10694 10692 10692 10688 10688 10691 10690 10683 10682 10679 10678 10676 10671 10669 10669 10665 10663 10658 10656 10655 10654 10653 10653 10653
10694 10693 10692 10690 10688 10686 10686 10684 10684 10682 10682 10681 10680 10679 10674 10673 10670 10666 10664 10662 10659 10660 10657 10655 10657 10655 10652 10649 10650 10649 10649 10645 10643 10638 10634 10630 10627 10626 10620 10619 10620 10620 10621
10669 10667 10666 10666 10664 10662 10660 10658 10656 10655 10653 10652 10650 10647 10645 10642 10638 10635 10632 10630 10629 10627 10626 10626 10626 10620 10619 10617 10614 10613 10615 10613 10607 10604 10601 10596 10592 10591 10589 10589 10589 10588 10590
10646 10643 10641 10640 10639 10636 10633 10630 10627 10625 10623 10619 10616 10615 10614 10609 10605 10603 10599 10597 10593 10590 10587 10588 10588 10585 10580 10574 10570 10567 10565 10565 10564 10560 10560 10559 10560 10560 10560 10559 10560 10561 10563
10623 10621 10619 10615 10611 10607 10604 10600 10597 10595 10592 10587 10582 10580 10577 10578 10575 10568 10565 10564 10562 10558 10553 10554 10552 10546 10540 10535 10530 10527 10525 10524 10523 10524 10525 10527 10529 10530 10531 10531 10532 10535 10538
10600 10598 10592 10588 10583 10579 10574 10568 10565 10560 10556 10552 10550 10550 10545 10540 10536 10535 10531 10528 10529 10528 10524 10521 10516 10508 10504 10502 10497 10496 10492 10490 10492 10493 10495 10496 10499 10503 10504 10506 10508 10512 10516
10573 10569 10565 10560 10554 10548 10542 10536 10530 10525 10521 10517 10514 10511 10509 10504 10502 10501 10500 10497 10491 10490 10486 10482 10478 10473 10470 10467 10468 10466 10464 10464 10464 10466 10468 10471 10475 10478 10481 10485 10488 10492 10497
10545 10538 10532 10527 10519 10514 10509 10504 10501 10496 10491 10488 10487 10483 10480 10478 10476 10475 10473 10469 10465 10461 10458 10452 10447 10442 10439 10439 10439 10439 10439 10440 10442 10444 10447 10450 10454 10457 10462 10466 10471 10474 10479
10517 10511 10504 10498 10490 10485 10482 10479 10477 10473 10469 10467 10462 10459 10458 10457 10455 10453 10450 10449 10446 10441 10437 10431 10426 10422 10419 10418 10419 10420 10420 10423 10425 10427 10430 10433 10437 10441 10445 10449 10453 10457 10462
10499 10491 10483 10475 10470 10466 10462 10457 10454 10452 10451 10448 10445 10444 10442 10440 10438 10436 10434 10431 10429 10425 10420 10416 10411 10406 10404 10403 10404 10405 10407 10409 10411 10413 10417 10419 10422 10426 10430 10433 10437 10441 10445
10478 10470 10463 10456 10449 10444 10441 10439 10437 10436 10435 10434 10433 10431 10428 10427 10425 10424 10423 10420 10416 10414 10410 10405 10402 10398 10396 10395 10396 10397 10398 10399 10401 10403 10405 10408 10411 10413 10416 10419 10422 10426 10429